Wind_Speed
27 32 30 31 26 25 28 29 26 24 26 28 29 32 26 21 23 27 28 27 25 25 27 30 33 34 36 36 36 34 30 29 26 26 27 24 22 22
26 26 31 27 27 26 27 23 20 20 25 29 30 29 26 27 29 30 30 30 31 30 30 32 34 37 39 41 41 39 32 30 26 25 26 25 22 22
27 29 29 27 26 23 23 21 20 22 25 27 28 26 27 28 27 27 30 33 36 35 36 34 38 41 43 45 45 42 32 32 27 26 28 27 24 23
27 27 28 23 20 22 21 19 20 21 25 29 29 29 28 28 31 33 33 31 33 32 33 36 38 41 45 42 50 46 40 35 29 29 30 30 27 25
27 27 22 20 21 22 19 20 22 24 26 28 29 28 28 29 32 34 36 38 38 38 39 39 37 40 40 40 42 46 43 34 34 32 31 29 28 28
25 23 22 21 21 21 22 23 24 25 23 23 26 28 30 32 35 38 42 42 43 40 41 41 41 43 40 39 43 49 45 36 34 30 30 29 30 26
23 20 21 20 22 23 25 23 23 22 23 25 27 31 34 37 39 41 43 47 50 47 46 44 40 39 37 38 37 41 37 34 37 27 30 30 26 25
22 23 21 22 22 22 22 23 22 23 24 28 31 35 37 39 40 40 41 43 44 41 31 40 34 35 33 34 32 38 42 39 26 28 28 26 27 29
22 22 24 23 23 21 23 23 22 24 27 31 33 34 35 33 34 35 34 35 40 43 36 44 39 44 39 32 30 37 39 24 25 27 27 27 29 30
22 23 22 22 23 22 23 23 25 26 27 28 28 29 30 29 29 30 32 36 38 37 29 33 34 36 35 31 29 31 26 24 26 24 26 26 28 29
21 22 22 23 23 22 24 25 26 26 27 27 28 28 27 26 24 26 29 30 36 37 32 32 31 31 26 24 22 19 21 25 23 19 23 25 28 30
20 20 19 19 21 23 24 25 25 26 26 27 27 28 28 27 24 22 25 27 28 33 32 28 30 24 25 26 23 21 22 22 16 19 22 26 24 23
18 18 19 20 21 22 25 23 23 25 25 26 27 28 28 27 25 22 23 26 28 29 29 28 30 32 29 24 13 9 14 14 16 19 20 19 18 17
17 18 18 19 21 22 22 21 22 23 24 25 26 28 28 28 28 26 26 25 26 25 26 23 28 28 28 21 13 13 13 13 15 15 16 13 17 17
17 17 18 20 20 18 19 21 22 23 25 26 27 28 28 29 28 28 27 24 22 19 20 21 21 20 19 13 14 14 13 12 12 11 11 14 16 15
16 17 17 18 19 20 20 20 21 23 24 25 26 27 28 28 27 25 28 28 24 20 17 18 18 15 24 17 17 16 14 11 10 12 14 14 12 13
17 18 18 17 18 19 20 20 21 22 23 24 25 26 27 27 26 24 24 26 23 19 21 20 18 13 14 16 19 17 15 14 12 13 14 15 12 11
16 15 16 17 17 18 19 21 22 23 23 23 24 24 25 26 26 25 23 24 25 21 19 20 17 14 14 16 17 17 17 13 11 11 13 16 12 8
13 14 15 16 17 18 20 21 22 23 24 23 23 23 24 24 24 24 23 23 24 22 16 18 18 16 16 19 17 14 12 11 11 11 11 13 12 10
14 14 15 18 20 20 21 23 23 24 23 23 22 22 22 24 24 22 21 21 23 22 16 13 17 19 17 17 17 13 11 12 11 12 11 11 9 8
15 17 19 19 21 22 22 23 24 23 23 23 23 22 21 22 22 21 21 18 20 19 19 9 11 15 19 17 19 16 11 11 13 13 10 10 9 8
17 17 19 20 21 22 23 23 23 22 22 23 23 22 20 19 20 21 21 20 18 18 19 14 12 12 14 14 18 13 10 10 10 10 11 11 9 3
17 18 19 21 22 24 24 24 23 22 23 22 22 21 20 20 19 19 19 19 19 18 17 16 10 10 14 17 17 11 10 9 11 10 7 9 10 9
Wind_Direction
262 253 261 257 258 254 255 267 261 266 277 283 283 289 292 287 288 292 294 294 289 283 277 272 273 273 273 272 272 274 279 288 295 297 300 296 288 288
258 259 253 254 248 252 258 258 259 271 279 284 288 292 291 288 289 292 294 295 291 289 288 282 277 275 274 274 269 269 270 278 285 288 290 289 282 283
255 247 252 253 260 262 263 255 264 271 277 284 289 290 289 289 287 290 288 288 289 284 281 279 282 283 280 272 274 266 266 271 276 282 288 285 276 280
250 249 249 249 255 259 251 255 260 265 276 283 287 290 290 291 293 292 291 288 288 287 286 285 284 287 288 277 271 264 264 265 271 276 284 286 277 279
252 245 244 251 257 244 240 255 263 271 276 279 286 288 290 293 294 294 294 294 291 291 288 286 286 286 286 286 276 270 261 253 264 270 280 281 275 279
245 245 247 250 237 232 242 259 268 278 276 278 283 290 295 298 298 300 298 295 295 294 291 289 288 287 285 285 279 272 257 248 253 268 277 273 275 274
236 240 242 234 227 239 255 262 273 277 277 283 290 295 297 300 301 302 299 298 296 295 295 294 292 288 289 284 287 271 253 248 253 264 272 275 270 277
237 238 228 224 233 251 262 269 281 278 283 290 294 297 299 300 302 301 301 303 304 302 298 292 293 288 290 289 283 272 259 249 262 263 268 266 268 278
232 223 221 230 242 257 262 275 273 279 287 291 293 296 298 303 304 305 308 304 302 303 298 295 295 285 293 286 285 275 249 248 251 259 262 262 270 283
217 219 230 241 248 261 269 270 276 283 287 290 292 297 301 305 305 305 302 303 302 311 310 294 300 291 292 286 283 275 250 242 255 255 259 265 278 284
222 229 235 247 258 264 271 277 282 286 287 291 293 296 299 300 298 296 299 299 299 303 309 302 295 290 297 288 284 261 248 253 263 247 257 270 280 283
230 237 245 253 263 272 278 283 287 289 293 296 301 306 309 310 308 292 291 297 295 298 303 305 303 291 282 282 272 255 246 252 236 255 273 281 281 281
238 247 257 265 271 276 282 287 289 294 300 304 307 309 311 312 313 307 297 291 287 283 293 296 295 295 274 266 270 238 211 221 256 275 281 281 281 273
248 259 268 272 279 284 288 288 291 297 303 307 310 312 314 315 316 315 309 298 290 275 286 285 285 287 277 253 244 222 237 256 269 274 281 268 272 281
264 273 278 284 287 290 290 292 296 302 306 308 311 313 315 315 315 313 309 306 297 288 285 286 281 283 252 254 253 245 245 265 265 275 280 287 285 281
277 282 286 288 289 286 289 293 300 304 309 312 312 312 312 312 314 316 315 318 306 295 286 295 285 279 257 259 255 252 256 256 274 279 282 290 290 296
286 285 281 280 283 287 294 301 306 308 310 311 311 311 311 311 312 314 313 315 306 292 294 283 285 264 255 258 257 255 253 258 269 278 281 291 286 294
276 277 282 286 292 298 303 307 308 310 312 313 313 312 311 312 312 312 313 317 314 293 284 284 286 262 258 260 250 253 259 259 268 274 283 298 287 293
286 287 288 293 299 303 306 307 309 311 313 313 313 313 312 310 311 313 313 314 315 304 275 277 275 259 256 254 253 259 259 249 264 267 286 298 289 303
291 290 295 300 301 302 304 304 306 307 309 310 312 313 311 306 310 310 311 314 317 317 298 272 268 274 251 257 262 266 244 248 263 271 281 288 277 290
293 293 295 296 297 298 300 302 303 306 309 311 312 310 310 309 310 311 311 311 309 317 308 279 255 279 278 258 252 249 247 250 272 266 261 263 264 282
294 293 295 298 299 301 303 304 305 305 306 307 306 307 307 305 307 310 312 317 312 314 308 308 274 258 270 263 249 242 242 267 261 255 275 237 233 261
296 297 299 299 301 303 304 303 302 303 306 305 305 306 305 305 309 310 310 314 314 311 313 314 295 250 260 265 233 220 242 252 236 252 266 241 236 236
Height
1526 1525 1527 1527 1528 1529 1530 1530 1529 1528 1528 1530 1531 1532 1531 1529 1529 1527 1526 1525 1525 1524 1524 1523 1521 1520 1518 1516 1515 1513 1512 1511 1508 1506 1504 1502 1500 1499
1520 1521 1522 1522 1522 1523 1523 1524 1524 1524 1522 1523 1524 1525 1525 1523 1522 1520 1518 1517 1517 1516 1516 1515 1514 1512 1510 1508 1506 1505 1503 1501 1500 1499 1497 1495 1493 1492
1516 1515 1516 1517 1518 1518 1519 1520 1520 1519 1517 1516 1518 1518 1516 1515 1514 1513 1511 1509 1507 1506 1505 1505 1503 1502 1500 1498 1498 1497 1496 1494 1491 1491 1489 1487 1486 1485
1508 1509 1510 1510 1512 1512 1514 1514 1515 1515 1513 1511 1511 1511 1509 1508 1507 1505 1504 1501 1499 1498 1497 1495 1493 1491 1488 1486 1485 1484 1484 1488 1485 1483 1482 1480 1479 1477
1502 1503 1503 1505 1506 1506 1507 1509 1509 1509 1508 1505 1503 1504 1502 1502 1499 1497 1496 1493 1493 1490 1487 1484 1482 1480 1477 1474 1472 1472 1471 1474 1477 1476 1473 1472 1471 1469
1496 1497 1498 1499 1499 1501 1501 1502 1502 1502 1501 1500 1498 1497 1495 1494 1492 1488 1483 1482 1480 1480 1477 1474 1472 1468 1466 1464 1463 1461 1458 1463 1465 1466 1466 1464 1463 1461
1488 1490 1493 1493 1494 1493 1496 1496 1495 1495 1494 1493 1492 1489 1487 1485 1483 1481 1476 1471 1467 1468 1465 1460 1460 1457 1455 1452 1450 1448 1449 1451 1453 1456 1457 1456 1455 1454
1482 1485 1487 1487 1488 1489 1490 1491 1491 1490 1489 1487 1485 1482 1480 1478 1475 1472 1467 1462 1455 1458 1452 1447 1449 1446 1445 1443 1442 1441 1442 1441 1446 1449 1448 1447 1447 1446
1479 1480 1481 1483 1484 1485 1485 1486 1486 1486 1484 1481 1478 1478 1473 1472 1468 1464 1460 1455 1449 1446 1446 1435 1437 1433 1434 1433 1433 1431 1431 1434 1439 1440 1441 1440 1440 1438
1475 1476 1478 1479 1479 1480 1480 1481 1481 1480 1478 1475 1473 1470 1468 1465 1461 1457 1453 1448 1442 1438 1438 1432 1429 1425 1425 1425 1425 1424 1424 1428 1431 1433 1434 1433 1432 1430
1471 1473 1474 1475 1475 1475 1475 1474 1473 1472 1471 1469 1467 1465 1462 1459 1456 1451 1446 1443 1435 1431 1431 1426 1421 1418 1417 1417 1417 1417 1419 1422 1424 1425 1427 1426 1424 1421
1467 1468 1469 1470 1470 1468 1468 1466 1466 1465 1463 1461 1459 1455 1453 1450 1448 1445 1441 1437 1434 1426 1425 1424 1418 1417 1413 1410 1411 1412 1413 1416 1419 1421 1420 1418 1416 1414
1463 1464 1465 1465 1464 1463 1462 1461 1459 1457 1455 1452 1449 1447 1444 1442 1439 1436 1433 1430 1426 1422 1420 1418 1414 1412 1409 1406 1406 1407 1409 1413 1415 1414 1413 1411 1410 1408
1461 1461 1460 1459 1459 1458 1457 1455 1453 1450 1447 1445 1442 1439 1436 1433 1430 1427 1424 1421 1417 1414 1412 1411 1408 1406 1404 1401 1403 1405 1407 1409 1409 1408 1407 1406 1405 1403
1458 1457 1456 1455 1454 1452 1451 1450 1448 1444 1441 1439 1436 1433 1430 1426 1423 1419 1416 1412 1409 1407 1406 1404 1402 1399 1400 1399 1400 1401 1403 1403 1403 1403 1402 1401 1399 1398
1453 1452 1452 1452 1450 1449 1447 1445 1442 1440 1436 1433 1430 1427 1424 1420 1417 1414 1409 1405 1402 1401 1402 1401 1397 1394 1394 1395 1396 1396 1398 1398 1398 1398 1397 1395 1394 1393
1448 1447 1447 1446 1445 1443 1442 1439 1437 1435 1432 1429 1425 1422 1418 1415 1411 1408 1404 1400 1396 1393 1393 1395 1393 1390 1390 1390 1390 1391 1393 1393 1393 1393 1392 1390 1390 1389
1442 1442 1442 1441 1440 1438 1436 1434 1431 1429 1426 1423 1420 1417 1413 1409 1406 1403 1400 1398 1392 1387 1385 1388 1387 1386 1385 1385 1386 1386 1387 1388 1389 1389 1388 1386 1385 1385
1437 1437 1436 1436 1434 1432 1430 1428 1425 1423 1420 1418 1415 1411 1408 1405 1401 1397 1395 1392 1389 1384 1379 1381 1381 1380 1380 1379 1382 1382 1382 1383 1384 1384 1383 1382 1381 1381
1432 1432 1431 1430 1428 1427 1425 1422 1420 1417 1414 1412 1409 1406 1403 1399 1395 1392 1388 1384 1385 1379 1374 1375 1375 1375 1374 1375 1376 1378 1378 1379 1379 1379 1379 1379 1378 1378
1427 1427 1425 1424 1422 1420 1418 1416 1413 1411 1408 1405 1403 1401 1398 1394 1393 1390 1387 1380 1380 1377 1372 1369 1369 1370 1369 1370 1371 1372 1374 1375 1375 1375 1375 1376 1376 1375
1421 1420 1419 1418 1416 1414 1411 1408 1406 1404 1402 1400 1397 1395 1392 1389 1386 1384 1384 1375 1375 1372 1369 1365 1364 1364 1364 1365 1366 1368 1370 1371 1371 1371 1371 1371 1373 1373
1416 1415 1413 1411 1409 1407 1404 1402 1399 1397 1396 1393 1391 1389 1387 1386 1383 1379 1378 1374 1371 1368 1365 1361 1359 1359 1360 1360 1362 1365 1367 1367 1368 1368 1369 1368 1369 1371